| time (UTC) | temp C | wind direction | speed KPH | gust KPH | rain 1hr cm | rain 24hr cm | rain mn cm | humidity % | barometer mb |
| 20260506124045 | 10 | 97 | 1.6 | 3.2 | 0.00 | 0.00 | 0.00 | 78 | 1016.8 |
| 20260506123545 | 11 | 100 | 1.6 | 3.2 | 0.00 | 0.00 | 0.00 | 78 | 1016.7 |
| 20260506123045 | 11 | 352 | 1.6 | 1.6 | 0.00 | 0.00 | 0.00 | 78 | 1016.3 |
| 20260506122545 | 11 | 0.0 | 1.6 | 0.00 | 0.00 | 0.00 | 78 | 1016.4 | |
| 20260506122047 | 11 | 0.0 | 1.6 | 0.00 | 0.00 | 0.00 | 78 | 1016.3 | |
| 20260506121545 | 11 | 1.6 | 1.6 | 0.00 | 0.00 | 0.00 | 78 | 1016.1 | |
| 20260506121045 | 11 | 1.6 | 3.2 | 0.00 | 0.00 | 0.00 | 78 | 1016.2 | |
| 20260506120545 | 11 | 0.0 | 3.2 | 0.00 | 0.00 | 0.00 | 78 | 1016.1 | |
| 20260506120045 | 11 | 345 | 1.6 | 3.2 | 0.00 | 0.00 | 0.00 | 78 | 1016.2 |
| 20260506115625 | 11 | 356 | 1.6 | 3.2 | 0.00 | 0.00 | 0.00 | 77 | 1016.4 |
| 20260506115045 | 11 | 0.0 | 1.6 | 0.00 | 0.00 | 0.00 | 77 | 1016.3 | |
| 20260506114605 | 11 | 1.6 | 1.6 | 0.00 | 0.00 | 0.00 | 77 | 1016.4 | |
| 20260506114105 | 11 | 0.0 | 1.6 | 0.00 | 0.00 | 0.00 | 77 | 1016.4 | |
| 20260506113545 | 11 | 1.6 | 1.6 | 0.00 | 0.00 | 0.00 | 77 | 1016.3 | |
| 20260506113105 | 11 | 359 | 1.6 | 3.2 | 0.00 | 0.00 | 0.00 | 77 | 1016.3 |
| 20260506112606 | 11 | 347 | 1.6 | 3.2 | 0.00 | 0.00 | 0.00 | 77 | 1016.2 |
| 20260506112045 | 11 | 324 | 1.6 | 3.2 | 0.00 | 0.00 | 0.00 | 77 | 1016.2 |
| 20260506111545 | 11 | 7 | 1.6 | 3.2 | 0.00 | 0.00 | 0.00 | 77 | 1016.2 |
| 20260506111046 | 11 | 143 | 1.6 | 3.2 | 0.00 | 0.00 | 0.00 | 78 | 1016.0 |
| 20260506110545 | 11 | 301 | 1.6 | 3.2 | 0.00 | 0.00 | 0.00 | 78 | 1016.0 |
| 20260506110045 | 11 | 144 | 1.6 | 3.2 | 0.00 | 0.00 | 0.00 | 77 | 1015.9 |
| 20260506105546 | 12 | 358 | 1.6 | 3.2 | 0.00 | 0.00 | 0.00 | 78 | 1015.8 |
| 20260506105045 | 11 | 337 | 3.2 | 3.2 | 0.00 | 0.00 | 0.00 | 77 | 1015.7 |
| 20260506104545 | 12 | 351 | 3.2 | 3.2 | 0.00 | 0.00 | 0.00 | 77 | 1015.7 |
| 20260506104045 | 12 | 342 | 1.6 | 3.2 | 0.00 | 0.00 | 0.00 | 77 | 1015.8 |
| 20260506103545 | 12 | 358 | 1.6 | 3.2 | 0.00 | 0.00 | 0.00 | 77 | 1015.6 |
| 20260506103105 | 11 | 0.0 | 3.2 | 0.00 | 0.00 | 0.00 | 77 | 1015.7 | |
| 20260506102545 | 12 | 356 | 1.6 | 3.2 | 0.00 | 0.00 | 0.00 | 77 | 1015.6 |
| 20260506102106 | 12 | 342 | 1.6 | 3.2 | 0.00 | 0.00 | 0.00 | 76 | 1015.7 |
| 20260506101545 | 12 | 346 | 1.6 | 3.2 | 0.00 | 0.00 | 0.00 | 75 | 1015.7 |
| 20260506101045 | 12 | 358 | 1.6 | 1.6 | 0.00 | 0.00 | 0.00 | 75 | 1015.6 |
| 20260506100545 | 11 | 0.0 | 1.6 | 0.00 | 0.00 | 0.00 | 75 | 1015.6 | |
| 20260506100045 | 11 | 0.0 | 3.2 | 0.00 | 0.00 | 0.00 | 76 | 1015.6 | |
| 20260506095545 | 12 | 241 | 1.6 | 3.2 | 0.00 | 0.00 | 0.00 | 76 | 1015.5 |
| 20260506095045 | 12 | 358 | 1.6 | 3.2 | 0.00 | 0.00 | 0.00 | 75 | 1015.4 |
| 20260506094545 | 12 | 52 | 1.6 | 1.6 | 0.00 | 0.00 | 0.00 | 75 | 1015.3 |
| 20260506094045 | 12 | 0.0 | 3.2 | 0.00 | 0.00 | 0.00 | 76 | 1015.2 | |
| 20260506093605 | 12 | 357 | 1.6 | 3.2 | 0.00 | 0.00 | 0.00 | 76 | 1015.2 |
| 20260506093106 | 12 | 341 | 1.6 | 3.2 | 0.00 | 0.00 | 0.00 | 76 | 1015.1 |
| 20260506092545 | 12 | 3 | 1.6 | 3.2 | 0.00 | 0.00 | 0.00 | 75 | 1015.2 |
| 20260506092045 | 12 | 59 | 1.6 | 3.2 | 0.00 | 0.00 | 0.00 | 75 | 1015.1 |
| 20260506091545 | 12 | 287 | 1.6 | 3.2 | 0.00 | 0.00 | 0.00 | 75 | 1015.0 |
| 20260506091045 | 12 | 334 | 1.6 | 3.2 | 0.00 | 0.00 | 0.00 | 75 | 1015.1 |
| 20260506090545 | 12 | 346 | 1.6 | 3.2 | 0.00 | 0.00 | 0.00 | 75 | 1015.3 |
| 20260506090045 | 12 | 103 | 1.6 | 3.2 | 0.00 | 0.00 | 0.00 | 74 | 1015.3 |
| 20260506085605 | 12 | 8 | 1.6 | 1.6 | 0.00 | 0.00 | 0.00 | 74 | 1015.3 |
| 20260506085045 | 12 | 24 | 1.6 | 1.6 | 0.00 | 0.00 | 0.00 | 75 | 1015.3 |
| 20260506084545 | 12 | 0.0 | 1.6 | 0.00 | 0.00 | 0.00 | 74 | 1015.3 | |
| 20260506084045 | 12 | 0.0 | 3.2 | 0.00 | 0.00 | 0.00 | 74 | 1015.0 | |
| 20260506083605 | 12 | 346 | 1.6 | 3.2 | 0.00 | 0.00 | 0.00 | 74 | 1015.0 |
| 20260506083045 | 13 | 346 | 1.6 | 3.2 | 0.00 | 0.00 | 0.00 | 75 | 1015.1 |
| 20260506082545 | 12 | 354 | 1.6 | 3.2 | 0.00 | 0.00 | 0.00 | 74 | 1015.1 |
| 20260506082045 | 13 | 1 | 3.2 | 3.2 | 0.00 | 0.00 | 0.00 | 74 | 1015.1 |
| 20260506081545 | 13 | 348 | 1.6 | 3.2 | 0.00 | 0.00 | 0.00 | 74 | 1015.1 |
| 20260506081045 | 12 | 12 | 1.6 | 3.2 | 0.00 | 0.00 | 0.00 | 74 | 1015.1 |
| 20260506080545 | 13 | 2 | 1.6 | 3.2 | 0.00 | 0.00 | 0.00 | 74 | 1015.0 |
| 20260506073045 | 13 | 353 | 3.2 | 3.2 | 0.00 | 0.00 | 0.00 | 74 | 1014.9 |
| 20260506072545 | 13 | 2 | 1.6 | 3.2 | 0.00 | 0.00 | 0.00 | 74 | 1014.9 |
| 20260506072046 | 13 | 359 | 1.6 | 3.2 | 0.00 | 0.00 | 0.00 | 73 | 1014.8 |
| 20260506071545 | 13 | 347 | 1.6 | 3.2 | 0.00 | 0.00 | 0.00 | 73 | 1014.8 |
| 20260506071105 | 13 | 2 | 1.6 | 3.2 | 0.00 | 0.00 | 0.00 | 73 | 1014.9 |
| 20260506070605 | 13 | 234 | 1.6 | 4.8 | 0.00 | 0.00 | 0.00 | 73 | 1014.8 |
| 20260506062045 | 13 | 260 | 1.6 | 6.4 | 0.00 | 0.00 | 0.00 | 70 | 1014.6 |
| 20260506061605 | 13 | 291 | 3.2 | 4.8 | 0.00 | 0.00 | 0.00 | 70 | 1014.7 |
| 20260506061044 | 13 | 312 | 1.6 | 4.8 | 0.00 | 0.00 | 0.00 | 70 | 1014.5 |
| 20260506060544 | 13 | 322 | 3.2 | 4.8 | 0.00 | 0.00 | 0.00 | 71 | 1014.5 |
| 20260506051104 | 14 | 291 | 3.2 | 6.4 | 0.00 | 0.00 | 0.00 | 69 | 1014.3 |
| 20260506050605 | 14 | 262 | 1.6 | 6.4 | 0.00 | 0.00 | 0.00 | 68 | 1014.3 |
| 20260506045044 | 14 | 343 | 1.6 | 3.2 | 0.00 | 0.00 | 0.00 | 70 | 1014.1 |
| 20260506044544 | 14 | 12 | 1.6 | 4.8 | 0.00 | 0.00 | 0.00 | 71 | 1013.9 |
| 20260506044125 | 14 | 352 | 1.6 | 4.8 | 0.00 | 0.00 | 0.00 | 71 | 1014.0 |
| 20260506043604 | 14 | 357 | 1.6 | 4.8 | 0.00 | 0.00 | 0.00 | 69 | 1014.1 |
| 20260506043045 | 14 | 12 | 1.6 | 3.2 | 0.00 | 0.00 | 0.00 | 67 | 1014.0 |
| 20260506042545 | 15 | 39 | 1.6 | 6.4 | 0.00 | 0.00 | 0.00 | 64 | 1014.0 |
| 20260506042044 | 15 | 190 | 1.6 | 8.0 | 0.00 | 0.00 | 0.00 | 64 | 1013.9 |
| 20260506041544 | 15 | 319 | 3.2 | 8.0 | 0.00 | 0.00 | 0.00 | 64 | 1014.0 |
| 20260506041044 | 15 | 213 | 4.8 | 6.4 | 0.00 | 0.00 | 0.00 | 64 | 1013.9 |
| 20260506040605 | 15 | 224 | 3.2 | 9.7 | 0.00 | 0.00 | 0.00 | 63 | 1014.0 |
| 20260506040045 | 15 | 220 | 4.8 | 11.3 | 0.00 | 0.00 | 0.00 | 63 | 1013.8 |
| 20260506035544 | 15 | 267 | 6.4 | 11.3 | 0.00 | 0.00 | 0.00 | 64 | 1013.7 |
| 20260506035105 | 15 | 282 | 4.8 | 8.0 | 0.00 | 0.00 | 0.00 | 64 | 1013.8 |
| 20260506034605 | 15 | 289 | 1.6 | 8.0 | 0.00 | 0.00 | 0.00 | 63 | 1013.7 |
| 20260506034044 | 15 | 289 | 4.8 | 9.7 | 0.00 | 0.00 | 0.00 | 63 | 1013.6 |
| 20260506033545 | 15 | 282 | 4.8 | 9.7 | 0.00 | 0.00 | 0.00 | 63 | 1013.6 |
| 20260506033044 | 15 | 281 | 3.2 | 9.7 | 0.00 | 0.00 | 0.00 | 62 | 1013.5 |
| 20260506032545 | 15 | 220 | 1.6 | 9.7 | 0.00 | 0.00 | 0.00 | 63 | 1013.3 |
| 20260506032044 | 15 | 287 | 3.2 | 9.7 | 0.00 | 0.00 | 0.00 | 63 | 1013.2 |
| 20260506031544 | 15 | 299 | 1.6 | 8.0 | 0.00 | 0.00 | 0.00 | 62 | 1013.3 |
| 20260506031044 | 15 | 265 | 3.2 | 12.9 | 0.00 | 0.00 | 0.00 | 63 | 1013.2 |
| 20260506030544 | 15 | 220 | 6.4 | 12.9 | 0.00 | 0.00 | 0.00 | 62 | 1013.3 |
| 20260506030044 | 15 | 218 | 3.2 | 12.9 | 0.00 | 0.00 | 0.00 | 62 | 1013.1 |
| 20260506025545 | 15 | 284 | 4.8 | 14.5 | 0.00 | 0.00 | 0.00 | 63 | 1013.1 |
| 20260506025125 | 15 | 286 | 6.4 | 14.5 | 0.00 | 0.00 | 0.00 | 62 | 1012.9 |
| 20260506024545 | 16 | 315 | 3.2 | 12.9 | 0.00 | 0.00 | 0.00 | 61 | 1013.1 |
| 20260506024044 | 16 | 273 | 4.8 | 11.3 | 0.00 | 0.00 | 0.00 | 61 | 1013.2 |
| 20260506023544 | 16 | 239 | 4.8 | 12.9 | 0.00 | 0.00 | 0.00 | 61 | 1013.1 |
| 20260506023045 | 16 | 252 | 4.8 | 16.1 | 0.00 | 0.00 | 0.00 | 62 | 1013.0 |
| 20260506022545 | 16 | 267 | 6.4 | 17.7 | 0.00 | 0.00 | 0.00 | 61 | 1012.9 |
| 20260506022045 | 16 | 239 | 6.4 | 17.7 | 0.00 | 0.00 | 0.00 | 61 | 1013.0 |
| 20260506021545 | 16 | 234 | 9.7 | 22.5 | 0.00 | 0.00 | 0.00 | 61 | 1012.9 |
| 20260506021045 | 16 | 270 | 9.7 | 22.5 | 0.00 | 0.00 | 0.00 | 61 | 1012.8 |
| 20260506020545 | 16 | 268 | 8.0 | 20.9 | 0.00 | 0.00 | 0.00 | 60 | 1013.0 |
| 20260506020045 | 16 | 259 | 8.0 | 19.3 | 0.00 | 0.00 | 0.00 | 60 | 1012.9 |
| 20260506015544 | 16 | 261 | 9.7 | 19.3 | 0.00 | 0.00 | 0.00 | 60 | 1012.9 |
| 20260506015045 | 16 | 243 | 6.4 | 16.1 | 0.00 | 0.00 | 0.00 | 59 | 1012.8 |
| 20260506014544 | 16 | 283 | 11.3 | 20.9 | 0.00 | 0.00 | 0.00 | 59 | 1012.7 |
| 20260506014045 | 16 | 245 | 9.7 | 20.9 | 0.00 | 0.00 | 0.00 | 59 | 1012.8 |
| 20260506013545 | 16 | 292 | 11.3 | 19.3 | 0.00 | 0.00 | 0.00 | 59 | 1012.8 |
| 20260506013044 | 16 | 249 | 8.0 | 22.5 | 0.00 | 0.00 | 0.00 | 59 | 1012.8 |
| 20260506012544 | 16 | 255 | 8.0 | 22.5 | 0.00 | 0.00 | 0.00 | 59 | 1012.8 |
| 20260506012104 | 16 | 266 | 9.7 | 19.3 | 0.00 | 0.00 | 0.00 | 58 | 1012.9 |
| 20260506011545 | 17 | 254 | 8.0 | 19.3 | 0.00 | 0.00 | 0.00 | 59 | 1012.9 |
| 20260506011045 | 17 | 283 | 9.7 | 24.1 | 0.00 | 0.00 | 0.00 | 57 | 1012.9 |
| 20260506010604 | 17 | 271 | 11.3 | 24.1 | 0.00 | 0.00 | 0.00 | 57 | 1012.9 |
| 20260506010104 | 17 | 262 | 11.3 | 24.1 | 0.00 | 0.00 | 0.00 | 57 | 1012.9 |
| 20260506005544 | 17 | 266 | 11.3 | 20.9 | 0.00 | 0.00 | 0.00 | 57 | 1012.9 |
| 20260506005046 | 17 | 257 | 11.3 | 22.5 | 0.00 | 0.00 | 0.00 | 57 | 1013.0 |
| 20260506004544 | 17 | 256 | 8.0 | 27.4 | 0.00 | 0.00 | 0.00 | 56 | 1012.9 |
| 20260506004045 | 17 | 265 | 9.7 | 27.4 | 0.00 | 0.00 | 0.00 | 56 | 1013.0 |
| 20260506003545 | 17 | 239 | 11.3 | 24.1 | 0.00 | 0.00 | 0.00 | 56 | 1012.9 |
| 20260506003105 | 17 | 242 | 9.7 | 22.5 | 0.00 | 0.00 | 0.00 | 55 | 1013.0 |
| 20260506002545 | 17 | 245 | 8.0 | 22.5 | 0.00 | 0.00 | 0.00 | 55 | 1012.8 |
| 20260506002104 | 17 | 261 | 9.7 | 20.9 | 0.00 | 0.00 | 0.00 | 55 | 1012.9 |
| 20260506001544 | 17 | 253 | 11.3 | 22.5 | 0.00 | 0.00 | 0.00 | 54 | 1012.9 |
| 20260506001044 | 17 | 239 | 9.7 | 22.5 | 0.00 | 0.00 | 0.00 | 54 | 1013.0 |
| 20260506000545 | 18 | 247 | 9.7 | 24.1 | 0.00 | 0.00 | 0.00 | 53 | 1013.0 |
| 20260506000045 | 17 | 247 | 9.7 | 24.1 | 0.00 | 0.00 | 0.00 | 53 | 1012.8 |
| 20260505235545 | 17 | 252 | 9.7 | 27.4 | 0.00 | 0.00 | 0.00 | 53 | 1013.0 |
| 20260505235045 | 18 | 256 | 11.3 | 27.4 | 0.00 | 0.00 | 0.00 | 53 | 1013.1 |
| 20260505234544 | 18 | 258 | 6.4 | 22.5 | 0.00 | 0.00 | 0.00 | 52 | 1013.0 |
| 20260505234044 | 18 | 266 | 11.3 | 24.1 | 0.00 | 0.00 | 0.00 | 52 | 1012.9 |
| 20260505233545 | 18 | 270 | 9.7 | 24.1 | 0.00 | 0.00 | 0.00 | 52 | 1013.2 |
| 20260505233045 | 18 | 275 | 6.4 | 24.1 | 0.00 | 0.00 | 0.00 | 53 | 1013.1 |
| 20260505232605 | 18 | 252 | 9.7 | 25.7 | 0.00 | 0.00 | 0.00 | 53 | 1013.0 |
| 20260505232044 | 18 | 249 | 12.9 | 25.7 | 0.00 | 0.00 | 0.00 | 53 | 1013.3 |
| 20260505231544 | 18 | 262 | 9.7 | 25.7 | 0.00 | 0.00 | 0.00 | 53 | 1013.1 |
| 20260505231105 | 18 | 243 | 9.7 | 27.4 | 0.00 | 0.00 | 0.00 | 53 | 1013.4 |
| 20260505230626 | 18 | 253 | 9.7 | 27.4 | 0.00 | 0.00 | 0.00 | 52 | 1013.3 |
| 20260505230044 | 18 | 261 | 14.5 | 25.7 | 0.00 | 0.00 | 0.00 | 52 | 1013.5 |
| 20260505225544 | 18 | 232 | 11.3 | 25.7 | 0.00 | 0.00 | 0.00 | 52 | 1013.3 |
| 20260505225045 | 18 | 270 | 8.0 | 25.7 | 0.00 | 0.00 | 0.00 | 52 | 1013.4 |
| 20260505224544 | 18 | 247 | 8.0 | 17.7 | 0.00 | 0.00 | 0.00 | 52 | 1013.5 |
| 20260505224104 | 18 | 245 | 8.0 | 19.3 | 0.00 | 0.00 | 0.00 | 52 | 1013.5 |
| 20260505223605 | 17 | 237 | 8.0 | 19.3 | 0.00 | 0.00 | 0.00 | 52 | 1013.6 |
| 20260505223045 | 17 | 270 | 6.4 | 25.7 | 0.00 | 0.00 | 0.00 | 52 | 1013.6 |
| 20260505222544 | 17 | 267 | 8.0 | 25.7 | 0.00 | 0.00 | 0.00 | 52 | 1013.8 |
| 20260505222044 | 18 | 241 | 9.7 | 24.1 | 0.00 | 0.00 | 0.00 | 52 | 1013.7 |
| 20260505221545 | 18 | 267 | 8.0 | 20.9 | 0.00 | 0.00 | 0.00 | 51 | 1013.4 |
| 20260505221104 | 18 | 183 | 6.4 | 20.9 | 0.00 | 0.00 | 0.00 | 51 | 1013.8 |
| 20260505220544 | 18 | 254 | 6.4 | 22.5 | 0.00 | 0.00 | 0.00 | 51 | 1013.8 |
| 20260505220044 | 18 | 250 | 6.4 | 33.8 | 0.00 | 0.00 | 0.00 | 51 | 1013.7 |
| 20260505215545 | 18 | 259 | 8.0 | 33.8 | 0.00 | 0.00 | 0.00 | 51 | 1013.8 |
| 20260505215105 | 17 | 221 | 9.7 | 25.7 | 0.00 | 0.00 | 0.00 | 51 | 1013.8 |
| 20260505214605 | 18 | 235 | 9.7 | 20.9 | 0.00 | 0.00 | 0.00 | 51 | 1013.8 |
| 20260505214044 | 18 | 266 | 6.4 | 20.9 | 0.00 | 0.00 | 0.00 | 51 | 1013.8 |
| 20260505213605 | 17 | 261 | 9.7 | 20.9 | 0.00 | 0.00 | 0.00 | 51 | 1013.8 |
| 20260505213045 | 17 | 262 | 8.0 | 19.3 | 0.00 | 0.00 | 0.00 | 51 | 1013.9 |
| 20260505212545 | 18 | 227 | 9.7 | 27.4 | 0.00 | 0.00 | 0.00 | 50 | 1014.0 |
| 20260505212104 | 18 | 261 | 6.4 | 27.4 | 0.00 | 0.00 | 0.00 | 50 | 1013.9 |
| 20260505211604 | 18 | 260 | 8.0 | 25.7 | 0.00 | 0.00 | 0.00 | 50 | 1013.9 |
| 20260505211045 | 18 | 260 | 9.7 | 25.7 | 0.00 | 0.00 | 0.00 | 50 | 1013.9 |
| 20260505210544 | 18 | 258 | 12.9 | 24.1 | 0.00 | 0.00 | 0.00 | 50 | 1014.0 |
| 20260505210044 | 18 | 232 | 11.3 | 22.5 | 0.00 | 0.00 | 0.00 | 50 | 1013.9 |
| 20260505205545 | 17 | 253 | 11.3 | 22.5 | 0.00 | 0.00 | 0.00 | 50 | 1014.0 |
| 20260505205044 | 18 | 228 | 11.3 | 25.7 | 0.00 | 0.00 | 0.00 | 50 | 1014.2 |
| 20260505204545 | 18 | 257 | 9.7 | 25.7 | 0.00 | 0.00 | 0.00 | 50 | 1014.1 |
| 20260505204044 | 17 | 257 | 8.0 | 25.7 | 0.00 | 0.00 | 0.00 | 50 | 1014.0 |
| 20260505203544 | 17 | 256 | 12.9 | 25.7 | 0.00 | 0.00 | 0.00 | 50 | 1014.2 |
| 20260505203044 | 17 | 269 | 11.3 | 24.1 | 0.00 | 0.00 | 0.00 | 50 | 1014.0 |
| 20260505202604 | 17 | 272 | 11.3 | 25.7 | 0.00 | 0.00 | 0.00 | 50 | 1014.1 |
| 20260505202045 | 17 | 267 | 12.9 | 25.7 | 0.00 | 0.00 | 0.00 | 50 | 1014.0 |
| 20260505201545 | 17 | 237 | 11.3 | 22.5 | 0.00 | 0.00 | 0.00 | 50 | 1014.2 |
| 20260505201044 | 17 | 249 | 6.4 | 22.5 | 0.00 | 0.00 | 0.00 | 50 | 1014.0 |
| 20260505200544 | 17 | 264 | 9.7 | 24.1 | 0.00 | 0.00 | 0.00 | 50 | 1014.0 |
| 20260505200045 | 17 | 233 | 4.8 | 24.1 | 0.00 | 0.00 | 0.00 | 51 | 1014.3 |
| 20260505195545 | 17 | 252 | 6.4 | 22.5 | 0.00 | 0.00 | 0.00 | 51 | 1014.0 |
| 20260505195044 | 17 | 234 | 8.0 | 22.5 | 0.00 | 0.00 | 0.00 | 50 | 1014.1 |
| 20260505194544 | 17 | 248 | 8.0 | 22.5 | 0.00 | 0.00 | 0.00 | 50 | 1014.2 |
| 20260505194044 | 17 | 260 | 9.7 | 20.9 | 0.00 | 0.00 | 0.00 | 50 | 1014.1 |
| 20260505193545 | 17 | 259 | 9.7 | 20.9 | 0.00 | 0.00 | 0.00 | 50 | 1014.1 |
| 20260505193105 | 17 | 262 | 8.0 | 19.3 | 0.00 | 0.00 | 0.00 | 50 | 1014.1 |
| 20260505192544 | 17 | 258 | 6.4 | 20.9 | 0.00 | 0.00 | 0.00 | 50 | 1014.1 |
| 20260505192044 | 17 | 224 | 6.4 | 20.9 | 0.00 | 0.00 | 0.00 | 50 | 1014.2 |
| 20260505191605 | 17 | 267 | 6.4 | 17.7 | 0.00 | 0.00 | 0.00 | 50 | 1014.1 |
| 20260505191044 | 17 | 247 | 6.4 | 17.7 | 0.00 | 0.00 | 0.00 | 49 | 1013.9 |
| 20260505190544 | 17 | 260 | 6.4 | 22.5 | 0.00 | 0.00 | 0.00 | 49 | 1013.7 |
| 20260505190044 | 17 | 230 | 6.4 | 22.5 | 0.00 | 0.00 | 0.00 | 50 | 1013.9 |
| 20260505185544 | 17 | 224 | 8.0 | 20.9 | 0.00 | 0.00 | 0.00 | 49 | 1013.9 |
| 20260505185045 | 17 | 236 | 8.0 | 20.9 | 0.00 | 0.00 | 0.00 | 49 | 1014.1 |
| 20260505184544 | 17 | 260 | 9.7 | 20.9 | 0.00 | 0.00 | 0.00 | 49 | 1014.0 |
| 20260505184044 | 17 | 221 | 8.0 | 22.5 | 0.00 | 0.00 | 0.00 | 50 | 1014.0 |
| 20260505183544 | 17 | 255 | 9.7 | 22.5 | 0.00 | 0.00 | 0.00 | 49 | 1014.0 |
| 20260505183105 | 17 | 247 | 12.9 | 20.9 | 0.00 | 0.00 | 0.00 | 49 | 1013.9 |
| 20260505182544 | 17 | 262 | 11.3 | 20.9 | 0.00 | 0.00 | 0.00 | 49 | 1014.0 |
| 20260505182044 | 17 | 237 | 8.0 | 17.7 | 0.00 | 0.00 | 0.00 | 49 | 1013.8 |
| 20260505181544 | 17 | 258 | 9.7 | 19.3 | 0.00 | 0.00 | 0.00 | 50 | 1013.9 |
| 20260505181045 | 17 | 260 | 9.7 | 19.3 | 0.00 | 0.00 | 0.00 | 50 | 1014.0 |
| 20260505180544 | 17 | 268 | 9.7 | 22.5 | 0.00 | 0.00 | 0.00 | 50 | 1013.9 |
| 20260505180044 | 16 | 276 | 9.7 | 22.5 | 0.00 | 0.00 | 0.00 | 50 | 1014.0 |
| 20260505175545 | 16 | 236 | 11.3 | 19.3 | 0.00 | 0.00 | 0.00 | 49 | 1014.0 |
| 20260505175125 | 17 | 234 | 9.7 | 20.9 | 0.00 | 0.00 | 0.00 | 49 | 1014.1 |
| 20260505174625 | 17 | 238 | 8.0 | 20.9 | 0.00 | 0.00 | 0.00 | 48 | 1014.0 |
| 20260505174044 | 16 | 256 | 6.4 | 17.7 | 0.00 | 0.00 | 0.00 | 47 | 1014.1 |
| 20260505173544 | 16 | 231 | 8.0 | 17.7 | 0.00 | 0.00 | 0.00 | 47 | 1014.2 |
| 20260505173044 | 17 | 260 | 4.8 | 16.1 | 0.00 | 0.00 | 0.00 | 47 | 1014.1 |
| 20260505172544 | 17 | 257 | 6.4 | 16.1 | 0.00 | 0.00 | 0.00 | 46 | 1014.1 |
| 20260505172044 | 17 | 207 | 4.8 | 14.5 | 0.00 | 0.00 | 0.00 | 45 | 1014.0 |
| 20260505171545 | 17 | 258 | 6.4 | 14.5 | 0.00 | 0.00 | 0.00 | 45 | 1014.0 |
| 20260505171045 | 16 | 249 | 4.8 | 14.5 | 0.00 | 0.00 | 0.00 | 45 | 1014.1 |
| 20260505170605 | 16 | 223 | 4.8 | 14.5 | 0.00 | 0.00 | 0.00 | 44 | 1014.1 |
| 20260505170045 | 16 | 227 | 8.0 | 14.5 | 0.00 | 0.00 | 0.00 | 43 | 1014.1 |
| 20260505165545 | 17 | 243 | 8.0 | 14.5 | 0.00 | 0.00 | 0.00 | 43 | 1014.1 |
| 20260505165104 | 17 | 241 | 4.8 | 14.5 | 0.00 | 0.00 | 0.00 | 43 | 1014.2 |
| 20260505164545 | 16 | 243 | 6.4 | 12.9 | 0.00 | 0.00 | 0.00 | 43 | 1014.2 |
| 20260505164044 | 16 | 224 | 6.4 | 11.3 | 0.00 | 0.00 | 0.00 | 43 | 1014.3 |
| 20260505163605 | 16 | 218 | 4.8 | 11.3 | 0.00 | 0.00 | 0.00 | 43 | 1014.2 |
| 20260505163045 | 16 | 251 | 4.8 | 11.3 | 0.00 | 0.00 | 0.00 | 43 | 1014.1 |
| 20260505162544 | 16 | 242 | 4.8 | 11.3 | 0.00 | 0.00 | 0.00 | 43 | 1014.2 |
| 20260505162044 | 16 | 247 | 6.4 | 12.9 | 0.00 | 0.00 | 0.00 | 43 | 1014.2 |
| 20260505161544 | 16 | 219 | 6.4 | 12.9 | 0.00 | 0.00 | 0.00 | 43 | 1014.1 |
| 20260505161045 | 16 | 238 | 6.4 | 9.7 | 0.00 | 0.00 | 0.00 | 43 | 1014.2 |
| 20260505160545 | 16 | 225 | 3.2 | 9.7 | 0.00 | 0.00 | 0.00 | 43 | 1014.2 |
| 20260505153044 | 15 | 167 | 1.6 | 4.8 | 0.00 | 0.00 | 0.00 | 44 | 1014.0 |
| 20260505152544 | 15 | 134 | 3.2 | 4.8 | 0.00 | 0.00 | 0.00 | 44 | 1014.1 |
| 20260505152044 | 15 | 195 | 1.6 | 4.8 | 0.00 | 0.00 | 0.00 | 44 | 1013.9 |
| 20260505151544 | 15 | 163 | 1.6 | 4.8 | 0.00 | 0.00 | 0.00 | 45 | 1014.0 |
| 20260505151045 | 16 | 154 | 3.2 | 4.8 | 0.00 | 0.00 | 0.00 | 44 | 1013.8 |
| 20260505150544 | 16 | 156 | 1.6 | 4.8 | 0.00 | 0.00 | 0.00 | 44 | 1013.9 |
| 20260505140604 | 14 | 119 | 1.6 | 3.2 | 0.00 | 0.00 | 0.00 | 46 | 1013.5 |